Location: Lake Arresoe
(56.0000°N, 12.5000°E)
Time: 20:35:43
(UTC+01:00)

Cosmos 2058 - Pass Details

Date: 22 October 2019
Orbit: 563 x 584 km, 82.5° (Epoch: 17 November)

Event Time Altitude Azimuth Distance (km) Brightness Sun altitude
Rises 21:05:51 0° 338° (NNW) 2,825 7.1 -27.3°
Reaches altitude 10° 21:08:31 10° 321° (NW) 1,918 6.3 -27.6°
Maximum altitude 21:11:33 20° 275° (W) 1,396 5.5 -28.0°
Drops below altitude 10° 21:14:34 10° 229° (SW) 1,903 5.8 -28.4°
Sets 21:17:13 0° 212° (SSW) 2,794 6.5 -28.7°
